アイラス彗星

126P/IRAS (2023)

English version
Home page
Updated on December 1, 2023

---------------------------------------------------------------------

・ プロフィール

・ 写真集

・ 軌道要素

Epoch 2023 Feb. 25.0 TT = JDT 2460000.5
T 2023 July 5.30639 TT                                  Rudenko
q   1.7105217            (2000.0)            P               Q
n   0.07370344     Peri.  356.59637     +0.99601216     +0.08514082
a   5.6339227      Node   357.87149     -0.05496024     +0.35013056
e   0.6963889      Incl.   45.87652     -0.07027914     +0.93282347
P  13.4
>From 400 observations 1983 July 1-2023 Mar. 18, mean residual 1".0.
     Nongravitational parameters A1 = +0.29, A2 = -0.0655.

・ 星図

・ 光度変化

        m1 = 9.2 + 5 logΔ + 15.0 log r

---------------------------------------------------------------------

軌道要素はM.P.E.C. 2023-F81に掲載されたものです。
星図はステラナビゲータ Ver.10 (アストロアーツ) で作成したものです。
光度グラフはComet for Windowsで作成したものです。

---------------------------------------------------------------------

Copyright(C) Seiichi Yoshida (comet@aerith.net). All rights reserved.